Weather History for KLWD - March, 2014

Change the Weather History Date:

Saturday, March 22, 2014

  Actual Average Record
Temperature  
Mean Temperature 30 °F 43 °F  
Max Temperature 38 °F 53 °F 83 °F (1988)
Min Temperature 22 °F 33 °F 9 °F (2002)
Degree Days  
Heating Degree Days 35 22  
Month to date heating degree days 700 591  
Since 1 July heating degree days 5974 5308  
Cooling Degree Days 0 0  
Month to date cooling degree days 0 0  
Year to date cooling degree days 0 0  
Moisture  
Dew Point 12 °F    
Average Humidity 51    
Maximum Humidity 75    
Minimum Humidity 27    
Precipitation  
Precipitation 0.00 in 0.08 in 0.35 in (1993)
Month to date precipitation 0.72 1.45  
Sea Level Pressure  
Sea Level Pressure 30.34 in    
Wind  
Wind Speed 14 mph (North)    
Max Wind Speed 21 mph    
Max Gust Speed 29 mph    
Visibility 10 miles    
Events      
T = Trace of Precipitation, MM = Missing Value Source: NWS Daily Summary

Daily Weather History Graph

Daily Weather History Graph

Search for Another Location

Airport or City:

Trip Planner

Search our weather history database for the weather conditions in past years. The results will help you decide how hot, cold, wet, or windy it might be!

Date:

Astronomy

Mar. 22, 2014 Rise Set
Actual Time 7:15 AM CDT 7:29 PM CDT
Civil Twilight 6:48 AM CDT 7:57 PM CDT
Nautical Twilight 6:16 AM CDT 8:29 PM CDT
Astronomical Twilight 5:43 AM CDT 9:01 PM CDT
Moon 12:51 AM CDT (3/22) 10:58 AM CDT (3/22)
Length of Visible Light 13h 08m
Length of Day
12h 14m
Waning Gibbous, 65% of the Moon is Illuminated
Mar 22
Waning Gibbous
Mar 23
Last Quarter
Mar 30
New
Apr 7
First Quarter
Apr 15
Full

Hourly Weather History & Observations

Time (CDT) Temp. Windchill Dew Point Humidity Pressure Visibility Wind Dir Wind Speed Gust Speed Precip Events Conditions
12:53 AM 30.9 °F 19.1 °F 21.0 °F 67% 30.18 in 10.0 mi North 18.4 mph 26.5 mph N/A   Clear
1:53 AM 28.9 °F 18.2 °F 21.9 °F 75% 30.19 in 10.0 mi North 13.8 mph - N/A   Clear
2:53 AM 28.0 °F 16.5 °F 19.0 °F 69% 30.22 in 10.0 mi North 15.0 mph 21.9 mph N/A   Clear
3:53 AM 26.1 °F 14.5 °F 19.9 °F 78% 30.22 in 10.0 mi NNW 13.8 mph - N/A   Clear
4:53 AM 25.0 °F 12.6 °F 18.0 °F 75% 30.24 in 10.0 mi NNW 15.0 mph - N/A   Clear
5:53 AM 24.1 °F 11.5 °F 16.0 °F 71% 30.26 in 10.0 mi NNW 15.0 mph - N/A   Clear
6:53 AM 21.9 °F 8.7 °F 12.9 °F 68% 30.29 in 10.0 mi North 15.0 mph 25.3 mph N/A   Clear
7:53 AM 21.9 °F 6.9 °F 12.0 °F 66% 30.30 in 10.0 mi North 19.6 mph 24.2 mph N/A   Clear
8:53 AM 23.0 °F 8.3 °F 12.0 °F 63% 30.34 in 10.0 mi North 19.6 mph - N/A   Clear
9:53 AM 25.0 °F 13.1 °F 10.9 °F 55% 30.36 in 10.0 mi North 13.8 mph 23.0 mph N/A   Clear
10:53 AM 28.9 °F 18.2 °F 10.9 °F 47% 30.37 in 10.0 mi North 13.8 mph - N/A   Clear
11:53 AM 30.9 °F 21.7 °F 10.0 °F 42% 30.40 in 10.0 mi NNW 11.5 mph 20.7 mph N/A   Partly Cloudy
12:53 PM 33.1 °F 23.4 °F 9.0 °F 37% 30.39 in 10.0 mi North 13.8 mph - N/A   Clear
1:53 PM 36.0 °F 28.0 °F 8.1 °F 31% 30.36 in 10.0 mi North 11.5 mph 21.9 mph N/A   Clear
2:53 PM 37.0 °F 28.5 °F 6.1 °F 28% 30.36 in 10.0 mi NNW 13.8 mph - N/A   Partly Cloudy
3:53 PM 37.0 °F 27.7 °F 6.1 °F 28% 30.36 in 10.0 mi NNE 16.1 mph 24.2 mph N/A   Mostly Cloudy
4:53 PM 35.1 °F 25.5 °F 6.1 °F 30% 30.36 in 10.0 mi NNE 15.0 mph 23.0 mph N/A   Clear
5:53 PM 32.0 °F 22.1 °F 7.0 °F 35% 30.38 in 10.0 mi North 13.8 mph - N/A   Scattered Clouds
6:53 PM 30.9 °F 21.2 °F 9.0 °F 40% 30.40 in 10.0 mi North 12.7 mph - N/A   Overcast
7:53 PM 28.9 °F 18.2 °F 10.9 °F 47% 30.41 in 10.0 mi North 13.8 mph - N/A   Overcast
8:53 PM 27.0 °F 15.2 °F 12.0 °F 53% 30.44 in 10.0 mi North 15.0 mph - N/A   Overcast
9:53 PM 26.1 °F 14.0 °F 12.0 °F 55% 30.46 in 10.0 mi North 15.0 mph - N/A   Overcast
10:53 PM 26.1 °F 15.6 °F 12.0 °F 55% 30.48 in 10.0 mi North 11.5 mph - N/A   Overcast
11:53 PM 25.0 °F 13.1 °F 12.0 °F 58% 30.50 in 10.0 mi North 13.8 mph - N/A   Overcast